User: anonymous   Login
Location: Unspecified
(0.0000°N, 0.0000°E)
Time: 21:31:03
(UTC+00:00)
Language:

CHUBUSAT 2 - Orbit

View from above orbital plane
View from above orbital plane
View from above satellite
View from above satellite

Ground track
Ground track

The orbit data is extracted from the following two-line orbital elements,

1 41338U 16012B   22268.24781609  .00002182  00000-0  15726-3 0  9993
2 41338  31.0023 108.3360 0013162  62.3066 297.8904 15.01682587362493
Epoch (UTC): 25 September 2022 05:56:51
Eccentricity: 0.0013162
inclination: 31.0023°
perigee height: 552 km
apogee height: 571 km
right ascension of ascending node: 108.3360°
argument of perigee: 62.3066°
revolutions per day: 15.01682587
mean anomaly at epoch: 297.8904°
orbit number at epoch: 36249

The dashed part of the orbit path shows where the satellite is in the earth's shadow,  

DLR